User: anonymous   Login
Location: Ahstedt
(52.2048°N, 10.1060°E)
Time: 12:24:47
(UTC+00:00)
Language:

Cosmos 2263 Rocket - Orbit

View from above orbital plane
View from above orbital plane
View from above satellite
View from above satellite

Ground track
Ground track

The orbit is defined by the following mean orbital elements,

1 22803U          26065.23016656 +.00000000 +00000-0 -30329-4 0 00008
2 22803  70.9924  18.4206 0018709 221.4934 138.4770 14.17232164    00
Epoch (UTC): 06 March 2026 05:31:26
Eccentricity: 0.0018709
inclination: 70.9924°
perigee height: 821 km
apogee height: 848 km
right ascension of ascending node: 18.4206°
argument of perigee: 221.4934°
revolutions per day: 14.17232164
mean anomaly at epoch: 138.4770°

The dashed part of the orbit path shows where the satellite is in the earth's shadow,  

DLR